Flag for Western Sahara Weather past 2 weeks in El Aaiún, Western Sahara

Now
81 °F

Sunny.


Feels Like: 81 °F
Forecast: N/A
Wind: 20 mph from Northeast

Location: Laayoune/Hassan Isl

Current Time: Jul 29, 2014 at 5:58:45 PM

Latest Report: Jul 29, 2014 at 5:00 PM


Visibility: 10 mi

Pressure: 29.92 "Hg

Humidity: 45%

Dew point: 57 °F

Location of El AaiúnLocation

Historic Weather in El Aaiún — Graph

°F

El Aaiún temperature yesterday

Maximum temperature yesterday: 84 °F (at 2:00 PM)
Minimum temperature yesterday: 64 °F (at 7:00 AM)
Average temperature yesterday: 73 °F

Past Weeks' High & Low Weather Summary

 TemperatureHumidityPressure
High84 °F (Jul 17, 2:00 PM)94% (Jul 16, 3:00 AM)30.09 "Hg (Jul 16, 3:00 AM)
Low63 °F (Jul 26, 6:00 AM)39% (Jul 27, 1:00 PM)29.92 "Hg (Jul 25, 5:00 PM)
Average74 °F66%30.02 "Hg
* Reported Jul 14 5:00 PM — Jul 29 5:00 PM, El Aaiún, Weather by CustomWeather, © 2014

Note: Actual official high and low records may vary slightly from our data, if they occured in-between our weather recording intervals... More about our weather records

Advertising

El Aaiún weather history for previous 24 hours

 ConditionsComfort  
Time TempWeatherWind HumidityBarometerVisibility
5:00 PM
Jul 29
81 °FSunny.20 mph45%29.92 "Hg10 mi
4:00 PM82 °FSunny.20 mph45%29.92 "Hg10 mi
3:00 PM82 °FSunny.22 mph45%29.92 "Hg10 mi
2:00 PM82 °FClear.22 mph42%29.92 "Hg5 mi
1:14 PM82 °FWarm.25 mph45%29.95 "Hg5 mi
1:00 PM82 °FSunny.23 mph42%29.95 "Hg10 mi
12:00 PM81 °FSunny.20 mph45%29.98 "Hg10 mi
11:00 AM77 °FPassing clouds.21 mph51%29.98 "HgN/A
10:37 AM77 °FWarm.22 mph54%30.01 "HgN/A
10:00 AM77 °FWarm.22 mph54%30.01 "HgN/A
9:00 AM72 °FScattered clouds.20 mph65%30.01 "Hg5 mi
8:00 AM70 °FPassing clouds.13 mph73%30.01 "Hg5 mi
7:00 AM68 °FPassing clouds.10 mph78%30.01 "Hg5 mi
6:00 AM66 °FPassing clouds.10 mph83%29.98 "Hg5 mi
5:00 AM66 °FPassing clouds.9 mph88%29.98 "HgN/A
4:00 AM66 °FPassing clouds.12 mph88%29.98 "HgN/A
3:00 AM66 °FPassing clouds.8 mph94%30.01 "HgN/A
2:00 AM66 °FPassing clouds.8 mph88%30.01 "HgN/A
1:00 AM68 °FPassing clouds.12 mph83%30.04 "HgN/A
12:00 AM68 °FPassing clouds.10 mph83%30.04 "HgN/A
11:00 PM
Jul 28
70 °FPassing clouds.14 mph78%30.04 "HgN/A
10:00 PM72 °FPassing clouds.15 mph69%30.04 "HgN/A
9:00 PM72 °FPassing clouds.17 mph69%30.04 "HgN/A
8:00 PM73 °FScattered clouds.18 mph69%30.01 "HgN/A
7:00 PM75 °FSunny.18 mph61%30.01 "Hg10 mi
6:00 PM79 °FWarm.24 mph54%30.01 "Hg6 mi
5:00 PM82 °FSunny.21 mph48%29.98 "Hg10 mi
Weather by CustomWeather, © 2014

See weather overviewHow to use our weather pages